Wind_Speed
9 9 9 9 9 9 8 8 8 8 8 7 7 6 6 6 5 5 4 5 5 5 5 5 5 5 5 5 5 5 6 6 6 6 7 7 7 8 7 8 8 8 8
10 10 10 10 10 9 9 8 8 8 9 8 8 7 7 7 6 6 5 5 5 5 5 6 6 6 6 5 5 6 7 7 7 7 7 7 8 7 7 8 8 9 9
10 10 10 9 9 10 10 9 9 9 9 9 9 8 8 7 7 7 7 7 7 7 7 7 7 7 7 7 6 7 7 7 8 7 7 8 8 7 7 8 9 9 10
11 11 11 11 10 10 10 10 10 10 10 9 9 9 9 8 8 8 8 8 8 8 8 9 8 8 8 8 8 8 8 8 8 7 7 8 9 8 8 9 9 10 11
12 12 12 11 11 11 11 11 11 11 11 10 10 10 10 9 9 10 10 10 10 10 10 10 10 10 10 10 10 9 9 9 9 9 9 9 9 9 10 10 10 10 11
12 12 13 12 12 11 11 11 11 11 12 11 11 11 11 11 11 11 11 12 12 12 11 11 11 11 12 12 11 11 11 11 11 11 11 11 10 10 10 11 11 11 12
13 14 14 13 13 12 12 12 12 13 12 12 12 12 12 12 12 12 12 12 13 13 13 13 13 13 13 13 13 13 13 13 12 12 12 12 12 11 11 12 11 12 12
14 15 15 15 14 13 13 13 13 14 13 13 13 13 13 13 13 13 13 14 14 14 15 15 15 15 14 14 14 14 13 13 13 13 13 13 13 13 13 13 13 13 13
15 16 15 15 14 14 14 14 14 14 14 14 14 14 14 14 14 15 15 15 15 15 16 16 16 15 15 15 15 15 14 14 14 14 14 14 14 14 14 14 14 14 14
16 16 15 15 15 14 15 15 15 14 14 15 14 14 14 14 14 15 15 16 16 16 16 16 17 16 16 17 16 15 15 15 15 15 15 15 15 15 15 15 15 15 14
15 15 15 14 14 15 15 15 15 15 14 14 14 15 15 15 15 15 15 16 17 17 17 17 17 17 17 17 17 17 16 15 16 15 15 15 15 16 16 16 16 16 16
14 15 14 14 15 16 15 16 15 15 15 15 15 15 15 16 16 16 17 17 17 18 18 18 18 17 18 19 19 18 17 17 17 17 17 16 16 17 17 17 17 17 17
14 15 15 15 15 16 16 16 16 15 15 15 15 16 16 17 17 17 18 19 19 19 19 19 20 19 20 20 20 20 19 19 19 18 18 17 17 17 17 17 18 18 18
16 16 16 16 16 16 16 17 17 16 16 16 16 17 17 18 19 19 19 19 20 20 20 21 21 21 20 21 22 21 20 20 20 20 19 18 18 18 18 18 19 19 18
16 15 15 16 16 17 17 16 16 16 17 17 17 18 19 19 19 20 20 21 22 22 22 21 21 21 21 22 22 22 21 22 21 21 21 20 20 19 19 19 20 20 20
16 16 15 15 15 16 16 16 17 17 18 19 19 20 20 20 20 21 22 22 22 23 23 24 25 24 23 23 23 23 23 22 21 21 21 21 20 20 20 19 20 20 21
16 15 15 15 16 16 16 17 18 19 19 19 20 21 21 20 21 22 22 22 22 23 24 24 25 26 25 25 24 24 24 23 22 22 22 21 21 21 20 20 21 21 22
16 16 16 15 15 16 16 18 19 19 20 20 20 21 21 21 22 22 22 22 22 23 24 25 25 26 26 25 25 25 25 24 23 23 22 22 22 22 22 21 21 22 23
16 16 16 16 16 17 17 19 19 19 19 20 20 20 20 21 21 22 23 23 23 23 24 25 26 26 26 26 26 25 26 25 24 24 24 24 24 23 23 23 23 23 23
17 17 17 17 17 17 17 17 18 19 20 21 21 21 22 21 21 22 22 23 22 23 23 24 26 26 26 27 26 27 27 26 24 24 25 25 25 25 25 25 24 25 25
18 18 16 16 16 17 17 17 18 19 20 21 21 21 21 21 21 21 22 22 22 22 22 22 23 24 25 26 26 26 27 27 27 26 26 26 26 26 26 26 26 26 26
17 17 16 16 17 17 17 18 19 20 21 21 21 21 21 21 22 22 22 21 21 21 21 22 22 22 24 26 26 26 25 27 27 27 27 27 27 26 26 26 26 26 26
17 17 17 17 17 18 18 19 20 20 20 20 20 20 21 22 23 23 21 21 22 22 22 22 22 22 23 25 25 25 25 26 25 26 28 28 27 27 27 26 26 26 27
18 18 18 18 18 19 19 19 20 19 20 20 19 19 20 20 21 21 21 22 22 22 23 22 22 23 23 24 25 25 25 25 26 26 26 27 28 28 28 27 27 27 27
18 18 18 19 19 19 20 20 20 20 19 19 20 20 20 20 20 21 21 22 22 22 22 23 22 22 23 24 24 25 25 25 26 27 27 28 29 28 28 28 29 29 28
19 19 19 19 19 19 20 19 19 19 19 20 20 20 20 20 20 21 21 22 22 22 22 22 22 23 23 23 24 25 26 25 26 26 27 27 29 29 29 29 29 29 30
Wind_Direction
312 311 309 304 301 297 293 285 276 276 272 271 270 264 258 256 253 252 253 251 252 254 254 248 245 249 250 253 254 252 250 250 256 258 258 257 257 259 256 249 245 244 238
308 306 303 299 300 298 292 287 283 277 272 268 268 265 259 256 255 255 255 252 249 250 254 252 250 251 252 253 255 253 253 252 254 258 258 256 256 256 254 251 244 241 239
306 302 297 296 300 301 297 288 285 279 274 268 266 267 264 257 255 257 255 255 249 247 251 253 253 253 254 254 253 256 257 255 252 256 256 254 254 255 256 253 244 240 240
301 300 295 296 297 298 296 289 284 280 272 267 264 264 265 261 257 256 258 258 256 250 249 250 252 253 252 252 250 253 254 251 251 253 254 253 253 255 254 252 247 242 242
295 296 293 294 293 292 292 287 281 278 274 267 263 262 262 262 260 257 257 256 257 255 253 252 252 253 253 251 250 250 249 248 251 252 254 253 254 255 253 252 249 246 244
291 291 291 291 288 287 287 282 278 276 272 267 264 261 260 260 258 258 259 258 256 256 257 255 254 257 256 254 251 249 249 251 253 254 255 255 256 257 256 253 251 250 248
292 288 287 286 284 282 281 280 277 273 269 266 264 259 258 257 257 256 259 263 261 255 254 255 254 255 253 253 251 250 252 253 254 256 256 256 256 255 255 254 253 252 252
291 288 288 281 277 275 276 277 276 270 267 268 266 261 260 259 258 258 259 262 262 258 254 252 254 254 252 251 250 254 254 253 255 257 257 255 255 256 254 252 252 251 252
290 288 287 281 278 276 276 277 275 268 265 265 264 264 264 264 261 260 262 263 262 261 258 254 258 256 253 250 252 257 257 258 259 260 258 256 255 254 251 250 250 249 250
290 288 287 286 282 276 274 274 274 268 264 261 263 264 266 268 264 262 264 264 264 263 259 258 260 256 255 252 255 257 258 260 263 265 260 257 256 253 250 249 250 251 252
291 289 285 285 280 274 271 271 273 269 266 264 262 264 267 268 267 265 265 264 263 261 261 262 260 257 255 253 254 255 257 260 263 264 262 258 257 255 253 251 251 252 253
294 290 283 279 276 273 270 268 269 267 265 263 265 267 267 268 270 268 265 264 262 260 260 261 259 259 258 256 255 255 256 260 263 264 263 259 258 257 255 254 253 252 253
295 289 282 279 275 273 268 268 266 265 265 264 266 268 268 268 271 267 267 265 264 263 261 259 257 257 259 257 256 256 258 260 264 266 264 259 259 258 256 254 253 253 254
296 292 286 278 276 274 269 267 265 266 267 269 270 271 272 272 271 269 266 266 263 263 262 261 260 258 260 259 259 257 257 259 262 263 260 257 258 258 256 255 254 254 254
298 296 292 284 279 274 272 271 271 271 271 273 274 274 273 273 271 270 269 266 264 263 262 261 261 261 261 262 261 258 259 259 257 259 258 258 258 258 257 257 256 255 254
301 296 293 288 280 279 277 273 272 272 271 273 273 273 273 274 274 273 271 271 266 264 263 262 262 263 263 265 264 260 257 258 258 256 255 256 257 257 257 258 259 257 255
303 296 295 291 287 283 278 278 277 274 276 277 276 277 277 275 275 274 272 272 271 266 263 263 263 263 262 263 262 258 255 256 258 257 254 254 257 258 259 259 260 259 257
303 299 298 295 288 284 281 282 282 279 278 279 278 278 277 276 274 272 271 271 271 269 265 264 264 263 262 262 262 259 255 255 257 255 255 256 258 260 260 260 260 261 259
307 306 302 295 290 288 286 284 282 281 280 280 280 280 279 278 274 273 272 272 272 271 268 265 264 263 262 260 261 259 256 255 255 254 255 257 259 260 260 259 258 259 260
311 309 306 301 293 291 290 289 287 285 283 281 282 281 280 278 277 275 277 275 274 271 270 269 266 263 260 259 259 260 257 255 254 255 256 257 259 260 261 260 259 259 257
310 308 305 301 296 293 291 290 292 291 287 284 283 285 284 282 279 278 278 277 276 274 271 271 268 264 261 260 260 259 257 256 254 256 256 258 260 260 261 260 260 259 257
311 309 306 303 300 296 294 293 293 294 292 287 285 287 287 285 282 279 279 277 276 274 271 269 267 265 263 262 261 261 262 258 256 256 255 257 260 260 261 260 259 258 257
314 313 309 306 304 300 298 295 294 294 292 289 286 288 287 285 282 280 279 278 278 277 276 272 268 265 264 263 262 263 263 260 260 257 254 256 259 260 261 259 258 257 256
314 313 310 308 306 303 301 298 295 294 293 290 288 289 290 291 287 283 281 278 276 277 276 273 269 266 264 263 263 262 262 260 260 257 257 257 260 260 260 259 258 257 257
316 315 312 309 309 306 304 302 298 295 294 291 290 290 291 292 290 286 283 280 277 277 275 273 272 268 266 264 262 261 262 263 262 259 259 259 260 259 259 259 257 256 256
320 317 315 313 312 310 306 305 301 297 296 295 294 293 293 294 292 288 286 282 279 277 275 273 271 268 266 265 262 261 263 263 263 261 261 258 259 261 261 260 258 256 257
Height
5885 5884 5883 5882 5881 5881 5880 5880 5879 5879 5879 5878 5878 5877 5877 5877 5877 5876 5876 5876 5876 5877 5877 5877 5878 5878 5878 5879 5879 5879 5880 5880 5880 5881 5881 5881 5881 5882 5882 5882 5882 5882 5883
5883 5882 5881 5880 5879 5879 5878 5878 5877 5877 5876 5876 5876 5875 5875 5875 5874 5874 5874 5874 5874 5875 5875 5875 5876 5876 5877 5877 5877 5878 5878 5878 5879 5879 5879 5879 5879 5880 5880 5880 5880 5881 5881
5880 5879 5879 5878 5877 5877 5876 5875 5875 5874 5874 5873 5873 5873 5873 5872 5872 5872 5872 5872 5872 5872 5873 5873 5874 5874 5875 5875 5876 5876 5876 5876 5877 5877 5877 5877 5877 5878 5878 5878 5878 5879 5880
5878 5877 5877 5876 5875 5874 5874 5873 5873 5872 5871 5871 5871 5870 5870 5870 5870 5870 5870 5870 5870 5870 5870 5871 5871 5872 5872 5873 5873 5873 5874 5874 5875 5875 5875 5875 5876 5876 5876 5876 5877 5877 5878
5876 5875 5874 5873 5873 5872 5871 5870 5870 5869 5869 5868 5868 5868 5868 5868 5867 5867 5867 5867 5867 5868 5868 5868 5868 5869 5870 5870 5870 5871 5871 5872 5872 5872 5873 5873 5873 5874 5874 5874 5875 5875 5876
5872 5872 5871 5870 5870 5869 5868 5867 5867 5866 5866 5865 5865 5865 5865 5864 5865 5865 5865 5865 5865 5865 5865 5866 5866 5866 5867 5867 5868 5868 5869 5869 5870 5870 5870 5870 5871 5871 5872 5872 5873 5873 5874
5869 5868 5868 5867 5866 5865 5865 5864 5863 5863 5862 5862 5862 5861 5861 5861 5861 5861 5862 5862 5862 5862 5862 5863 5863 5863 5864 5864 5865 5865 5866 5866 5867 5867 5867 5867 5868 5869 5869 5870 5870 5871 5871
5866 5865 5864 5863 5863 5861 5861 5861 5860 5859 5859 5859 5858 5858 5858 5858 5858 5858 5858 5858 5858 5858 5859 5859 5860 5861 5861 5861 5861 5862 5863 5863 5864 5864 5864 5865 5865 5865 5866 5866 5867 5867 5868
5862 5861 5860 5859 5858 5857 5857 5857 5856 5856 5856 5855 5855 5855 5855 5854 5854 5854 5854 5854 5854 5855 5855 5856 5856 5857 5857 5857 5858 5859 5860 5860 5860 5861 5861 5861 5862 5862 5863 5863 5864 5864 5865
5858 5857 5856 5855 5854 5854 5853 5853 5853 5852 5852 5851 5851 5851 5851 5851 5850 5850 5850 5851 5851 5851 5851 5852 5853 5853 5854 5854 5855 5855 5856 5856 5857 5857 5857 5858 5858 5858 5859 5859 5860 5861 5861
5854 5853 5852 5852 5851 5850 5850 5849 5849 5848 5848 5847 5848 5848 5848 5847 5847 5846 5846 5846 5846 5847 5847 5848 5849 5849 5849 5850 5851 5851 5852 5853 5853 5853 5854 5854 5855 5855 5855 5856 5856 5857 5857
5851 5849 5848 5848 5847 5846 5846 5845 5845 5845 5844 5844 5844 5844 5844 5843 5843 5843 5843 5842 5842 5842 5843 5843 5844 5845 5845 5846 5846 5847 5848 5848 5849 5849 5850 5851 5851 5851 5851 5852 5852 5853 5853
5847 5845 5844 5844 5843 5842 5842 5842 5842 5841 5841 5841 5841 5840 5840 5840 5839 5839 5839 5839 5838 5838 5838 5839 5839 5840 5841 5841 5842 5843 5843 5844 5844 5845 5845 5846 5847 5847 5848 5848 5848 5848 5849
5844 5842 5841 5839 5838 5838 5838 5838 5838 5838 5838 5838 5837 5837 5836 5836 5835 5835 5834 5834 5834 5834 5834 5834 5834 5835 5836 5837 5837 5838 5839 5839 5840 5840 5841 5841 5842 5842 5843 5843 5844 5844 5844
5840 5839 5838 5836 5835 5835 5835 5834 5835 5835 5835 5834 5833 5833 5832 5831 5830 5830 5830 5830 5829 5829 5829 5829 5830 5830 5831 5830 5831 5832 5833 5834 5834 5835 5835 5836 5837 5837 5838 5839 5839 5839 5840
5837 5836 5834 5832 5832 5832 5831 5831 5831 5831 5830 5830 5829 5828 5827 5826 5826 5825 5825 5825 5824 5824 5824 5824 5825 5825 5825 5825 5826 5827 5828 5829 5829 5829 5830 5831 5832 5832 5833 5834 5834 5835 5835
5835 5833 5831 5829 5829 5829 5828 5828 5827 5827 5826 5825 5824 5823 5822 5821 5821 5820 5819 5819 5819 5818 5818 5818 5819 5819 5820 5820 5820 5821 5822 5823 5823 5824 5825 5826 5826 5827 5828 5828 5829 5829 5830
5832 5830 5828 5827 5826 5825 5824 5824 5823 5822 5821 5821 5820 5818 5817 5816 5815 5814 5814 5813 5813 5812 5812 5812 5813 5813 5814 5814 5814 5815 5815 5816 5817 5818 5819 5820 5821 5821 5822 5823 5823 5823 5824
5830 5827 5825 5824 5822 5821 5821 5820 5819 5818 5817 5816 5815 5813 5812 5811 5810 5808 5808 5807 5806 5806 5806 5806 5806 5807 5807 5807 5808 5808 5809 5810 5811 5812 5813 5814 5815 5815 5816 5816 5817 5817 5818
5826 5824 5822 5821 5819 5818 5817 5816 5814 5813 5812 5811 5810 5808 5807 5806 5805 5803 5802 5801 5800 5800 5799 5799 5800 5800 5800 5800 5801 5802 5803 5804 5805 5806 5807 5808 5808 5809 5809 5810 5810 5811 5812
5823 5821 5819 5817 5815 5814 5812 5811 5810 5808 5807 5805 5804 5803 5801 5800 5798 5798 5797 5796 5794 5793 5793 5793 5793 5793 5793 5793 5794 5795 5796 5797 5798 5799 5800 5801 5802 5802 5802 5803 5803 5804 5805
5819 5817 5815 5813 5811 5809 5808 5806 5805 5803 5801 5800 5798 5797 5796 5794 5793 5791 5791 5790 5789 5787 5786 5786 5786 5786 5787 5787 5787 5788 5788 5790 5791 5792 5793 5794 5795 5795 5796 5796 5796 5796 5797
5816 5813 5811 5809 5806 5805 5803 5801 5800 5798 5796 5795 5793 5792 5790 5788 5787 5786 5785 5784 5783 5781 5780 5780 5780 5779 5780 5780 5780 5781 5782 5782 5783 5784 5786 5787 5788 5788 5788 5789 5789 5789 5790
5812 5809 5807 5804 5802 5800 5798 5796 5794 5793 5791 5790 5788 5786 5785 5782 5781 5779 5778 5778 5776 5775 5774 5773 5773 5773 5773 5773 5774 5774 5775 5775 5776 5777 5778 5779 5780 5780 5781 5781 5782 5782 5783
5808 5805 5802 5800 5797 5795 5793 5791 5789 5787 5786 5784 5783 5781 5779 5777 5775 5774 5772 5771 5770 5769 5768 5767 5767 5767 5766 5767 5767 5767 5768 5768 5769 5770 5771 5772 5772 5773 5773 5774 5774 5775 5775
5804 5801 5798 5795 5793 5790 5788 5786 5784 5782 5780 5779 5777 5776 5774 5772 5770 5768 5766 5764 5763 5762 5761 5761 5760 5760 5759 5759 5760 5760 5761 5761 5762 5763 5763 5764 5764 5765 5765 5766 5767 5767 5767